GEFSSE_con_cape1000_072.txt.gz
Probability
3 13 81 90 87 87 87 81 90 94 97 90 87 94 90 94 87 87 84 84 84 87 87 87 97 94 94 94 97 100 97 97 90 90 94 97 100 94 94 97 100 100 100
3 48 77 81 84 90 87 94 97 97 90 94 90 94 94 90 90 87 84 84 84 81 84 84 90 94 90 90 90 94 87 87 87 90 97 97 100 94 90 97 97 97 94
39 52 77 77 81 87 94 90 90 94 97 97 90 90 94 90 84 84 77 84 87 84 84 77 81 77 81 71 81 77 84 84 84 90 87 84 87 97 94 94 90 90 94
39 48 55 74 87 87 84 77 84 84 94 97 97 97 94 94 87 84 81 77 77 77 84 71 68 81 77 74 74 74 77 81 87 81 68 77 74 90 87 90 90 90 94
32 39 45 65 65 61 71 68 71 81 90 94 94 94 94 100 94 90 94 84 77 74 71 74 71 71 74 74 74 74 74 74 77 58 35 35 55 87 90 84 84 84 94
29 29 29 58 58 61 55 48 58 61 65 71 77 84 87 90 94 100 97 97 90 81 77 71 71 68 61 74 81 84 84 71 61 19 16 23 32 84 81 87 84 87 97
10 19 19 42 42 35 39 39 45 42 42 52 52 61 68 81 87 87 97 94 94 94 90 81 84 71 61 71 74 90 90 90 35 19 13 19 32 87 81 74 84 90 94
6 10 16 32 32 23 19 19 19 23 29 32 45 48 55 61 61 77 84 90 97 97 94 97 100 84 74 77 74 77 87 94 65 26 13 13 45 84 77 71 74 87 87
3 6 3 3 3 16 26 19 23 19 19 29 32 39 42 42 48 52 58 65 81 94 97 94 97 90 84 81 74 68 81 97 48 13 23 13 52 90 81 74 77 87 87
0 3 0 0 3 0 0 10 13 19 16 23 23 23 29 29 19 29 39 45 61 77 71 84 90 81 77 77 77 71 81 84 45 16 6 13 65 77 84 77 81 84 81
0 0 0 0 0 0 0 0 0 0 0 6 3 13 10 0 0 0 13 35 48 58 68 68 65 71 68 74 71 74 74 39 10 6 3 16 74 74 84 77 77 77 81
0 0 0 0 0 0 0 0 0 0 0 0 0 0 0 0 0 10 13 13 26 39 35 42 52 58 55 42 45 58 35 10 3 3 3 32 71 74 81 84 81 81 87
0 0 0 0 0 0 0 0 0 0 0 0 0 0 0 0 0 0 3 3 6 10 10 13 23 26 29 29 19 13 6 3 0 0 0 42 77 74 71 84 87 84 84
0 0 0 0 0 0 0 0 0 0 0 0 0 0 0 0 0 0 0 0 3 3 3 6 13 16 13 13 10 0 3 0 0 0 0 13 68 81 84 84 87 94 90
0 0 0 0 0 0 0 0 0 0 0 0 0 0 0 0 0 0 0 0 0 0 0 0 6 6 6 10 6 0 0 0 0 0 0 0 52 68 87 87 84 90 90
0 0 0 0 0 0 0 0 0 0 0 0 0 0 0 0 0 0 0 0 0 0 0 0 0 3 0 0 0 0 0 0 0 0 0 0 23 61 84 94 90 94 90
0 0 0 0 0 0 0 0 0 0 0 0 0 0 0 0 0 0 0 0 0 0 0 0 0 0 0 0 0 0 0 0 0 0 0 0 0 19 71 84 94 90 94
0 0 0 0 0 0 0 0 0 0 0 0 0 0 0 0 0 0 0 0 0 0 0 0 0 0 0 0 0 0 0 0 0 0 0 0 0 3 26 71 84 90 97
0 0 0 0 0 0 0 0 0 0 0 0 0 0 0 0 0 0 0 0 0 0 0 0 0 0 0 0 0 0 0 0 0 0 0 0 0 0 3 10 52 77 90
0 0 0 0 0 0 0 0 0 0 0 0 0 0 0 0 0 0 0 0 0 0 0 0 0 0 0 0 0 0 0 0 0 0 0 0 0 0 0 3 10 26 81
0 0 0 0 0 0 0 0 0 0 0 0 0 0 0 0 0 0 0 0 0 0 0 0 0 0 0 0 0 0 0 0 0 0 0 0 0 0 0 0 0 0 10
0 0 0 0 0 0 0 0 0 0 0 0 0 0 0 0 0 0 0 0 0 0 0 0 0 0 0 0 0 0 0 0 0 0 0 0 0 0 0 0 0 0 0
0 0 0 0 0 0 0 0 0 0 0 0 0 0 0 0 0 0 0 0 0 0 0 0 0 0 0 0 0 0 0 0 0 0 0 0 0 0 0 0 0 0 0
0 0 0 0 0 0 0 0 0 0 0 0 0 0 0 0 0 0 0 0 0 0 0 0 0 0 0 0 0 0 0 0 0 0 0 0 0 0 0 0 0 0 0
0 0 0 0 0 0 0 0 0 0 0 0 0 0 0 0 0 0 0 0 0 0 0 0 0 0 0 0 0 0 0 0 0 0 0 0 0 0 0 0 0 0 0
0 0 0 0 0 0 0 0 0 0 0 0 0 0 0 0 0 0 0 0 0 0 0 0 0 0 0 0 0 0 0 0 0 0 0 0 0 0 0 0 0 0 0

GEFSSE_con_cape1000_078.txt.gz
Probability
16 13 68 65 71 77 81 74 87 90 84 97 94 90 94 94 87 87 84 84 84 84 84 90 90 90 90 94 94 94 94 94 87 90 90 97 90 87 90 97 97 90 87
13 13 68 58 65 65 58 68 74 77 74 81 77 84 90 87 90 84 81 84 84 87 84 81 87 87 84 90 87 94 90 84 84 94 97 90 94 90 90 94 94 97 87
6 16 26 42 45 42 52 55 61 65 74 87 87 90 90 90 90 90 90 87 87 87 87 84 74 84 84 81 81 87 87 90 94 90 94 94 94 90 90 87 87 81 84
16 16 23 45 39 35 35 32 52 58 58 65 71 81 84 87 84 81 84 84 87 84 87 77 71 71 77 81 74 74 77 81 84 87 94 84 87 84 81 81 77 87 81
6 3 16 42 32 32 29 35 42 35 39 39 52 61 65 74 81 87 90 87 90 90 81 77 74 71 68 71 71 68 77 77 74 77 87 90 94 87 74 77 68 74 71
6 3 10 32 23 19 19 13 16 16 29 35 42 48 58 65 65 61 87 90 94 94 87 74 71 68 68 65 77 74 74 74 74 74 81 81 77 90 84 81 74 74 74
13 10 6 26 23 23 16 13 10 10 6 19 26 32 32 42 42 48 58 68 84 87 74 81 71 71 71 61 58 71 81 84 61 71 81 84 74 87 77 81 71 77 71
6 6 3 10 13 16 13 6 6 10 6 6 16 16 26 32 35 42 45 52 55 65 74 74 77 71 71 71 58 68 71 77 26 35 68 58 74 71 87 77 58 71 74
0 0 0 0 0 6 6 3 0 6 3 6 10 23 23 23 32 29 23 26 42 45 52 52 61 65 74 74 71 55 55 65 58 65 35 48 65 68 74 68 61 71 71
0 0 0 0 0 0 0 3 6 6 6 3 10 10 6 10 16 23 16 16 19 29 39 48 52 48 52 55 61 55 52 58 42 42 52 42 55 52 71 71 71 68 71
0 0 0 0 0 0 0 0 0 3 0 0 0 3 6 0 3 16 10 13 13 23 29 42 48 52 52 39 45 58 65 45 16 29 42 42 45 52 48 61 65 74 68
0 0 0 0 0 0 0 0 0 0 0 0 3 3 0 0 6 3 13 13 13 13 23 32 42 35 26 35 42 35 29 19 10 13 26 39 39 39 42 65 77 77 68
0 0 0 0 0 0 0 0 0 0 0 0 3 3 10 3 3 6 23 26 23 16 16 23 39 26 26 26 29 29 16 16 13 0 6 39 42 39 42 52 74 74 65
0 0 0 0 0 0 0 0 0 0 0 0 0 0 0 0 0 3 19 19 29 26 32 29 39 29 23 19 13 13 10 16 10 6 29 35 26 45 45 39 61 55 71
0 0 0 0 0 0 0 0 0 0 0 0 0 0 3 3 3 0 0 19 13 23 19 35 19 16 19 16 16 10 10 13 13 6 19 35 32 35 45 42 52 61 61
0 0 0 0 0 0 0 0 0 0 0 0 0 0 0 0 0 3 3 6 6 6 13 16 10 13 26 19 10 10 19 19 16 19 13 35 29 26 45 48 52 61 65
0 0 0 0 0 0 0 0 0 0 0 0 0 0 0 0 0 0 0 3 3 3 3 6 3 16 13 10 13 19 23 19 16 16 16 23 32 19 39 65 77 84 74
0 0 0 0 0 0 0 0 0 0 0 0 0 3 0 0 0 0 6 3 3 3 3 3 0 10 16 19 26 16 13 29 10 6 13 10 23 23 29 58 71 90 87
0 0 0 0 0 0 0 0 0 0 0 0 3 3 0 0 3 0 6 6 6 3 3 0 0 6 6 13 16 16 6 10 3 3 3 6 10 26 39 32 29 61 87
0 0 0 0 0 0 0 0 0 0 0 0 0 0 0 0 0 3 3 3 3 6 10 6 10 13 10 16 0 0 6 10 10 3 6 6 10 13 13 23 39 29 68
0 0 0 0 0 0 0 0 0 0 0 0 0 0 0 0 0 0 3 3 3 13 3 3 10 6 13 3 0 0 0 3 3 6 6 10 6 13 16 29 35 42 65
0 0 0 0 0 0 0 0 0 0 0 0 0 0 0 0 0 0 0 3 6 16 3 3 6 13 3 3 0 6 0 6 10 0 6 10 3 6 6 6 16 39 45
0 0 0 0 0 0 0 0 0 0 0 0 0 0 0 0 0 0 0 0 0 3 13 3 0 3 6 0 0 0 0 0 3 6 0 0 3 6 3 16 6 16 19
0 0 0 0 0 0 0 0 0 0 0 0 0 0 0 0 0 0 0 0 0 3 6 3 0 3 3 0 0 0 0 0 0 3 3 3 0 3 3 0 0 10 13
0 0 0 0 0 0 0 0 0 0 0 0 0 0 0 0 0 0 0 0 0 3 6 3 3 6 6 3 3 3 0 0 0 3 0 3 0 0 0 3 3 6 6
0 0 0 0 0 0 0 0 0 0 0 0 0 0 0 0 0 0 0 0 0 0 0 0 0 3 6 6 6 3 0 0 0 0 0 0 0 0 0 0 0 0 6

GEFSSE_con_cape1000_084.txt.gz
Probability
45 39 81 61 68 52 58 58 61 55 61 65 61 68 74 81 77 77 74 68 77 74 81 77 87 81 81 77 81 87 87 87 90 90 87 87 84 87 90 84 97 97 94
29 29 81 74 58 52 48 39 35 42 39 58 61 71 65 71 71 77 81 84 84 81 84 81 68 74 77 68 74 81 87 87 84 87 90 87 90 94 94 87 94 94 94
26 29 48 71 61 42 39 35 26 29 39 42 42 58 61 65 68 74 84 87 87 81 77 81 71 68 77 74 74 81 84 77 84 90 100 100 100 94 84 87 81 84 87
10 13 19 42 39 29 19 16 19 19 23 29 29 42 52 58 58 61 68 77 77 84 81 84 74 61 65 74 68 71 81 84 77 87 84 87 87 90 81 77 71 74 74
13 23 42 52 35 23 16 13 13 10 10 19 23 23 39 48 48 55 74 71 74 81 87 84 77 65 58 65 65 68 68 77 84 84 74 77 84 87 84 84 74 74 77
16 6 19 35 23 16 10 10 10 3 0 0 3 23 32 35 42 45 45 61 68 77 84 90 81 61 55 61 61 65 74 71 84 71 77 84 87 90 87 84 74 74 77
10 6 3 23 16 10 10 3 0 0 0 0 3 16 26 26 29 39 42 48 42 52 65 77 81 77 55 45 45 48 74 81 68 61 58 74 81 81 81 81 71 74 71
3 0 0 16 16 13 6 3 0 0 0 0 0 10 13 16 16 32 35 48 45 42 58 61 74 71 71 71 58 52 58 77 55 58 65 71 90 87 71 71 68 68 68
0 0 0 0 6 16 10 3 3 0 0 0 3 6 10 13 19 23 29 32 39 35 45 52 52 58 65 52 61 52 52 71 58 19 48 61 90 84 58 61 65 77 55
0 0 0 0 0 0 3 6 6 6 3 3 3 6 10 10 16 19 29 29 29 19 29 35 45 48 48 55 55 61 61 68 23 3 29 77 87 65 55 68 65 71 68
0 0 0 0 0 0 0 3 6 6 6 3 3 10 16 0 3 10 19 29 29 26 26 32 42 52 52 48 48 52 58 35 6 13 35 90 87 55 52 61 61 68 68
0 0 0 0 0 0 0 0 0 0 3 0 0 0 0 0 0 0 23 29 29 26 23 32 32 35 42 29 35 48 29 13 13 13 55 84 81 58 42 52 71 65 68
0 0 0 0 0 0 0 0 0 0 0 0 0 0 0 0 3 0 6 26 23 26 16 13 16 10 6 6 10 19 10 6 6 13 42 84 81 52 48 45 61 68 68
0 0 0 0 0 0 0 0 0 0 0 0 0 0 0 0 0 3 3 13 16 13 3 13 10 10 3 3 3 3 3 3 3 10 29 81 74 58 48 42 55 65 71
0 0 0 0 0 0 0 0 0 0 0 0 0 0 0 0 0 0 3 13 10 13 6 10 3 10 6 6 3 3 3 0 0 10 10 71 74 71 61 58 55 55 71
0 0 0 0 0 0 0 0 0 0 0 0 0 0 0 0 0 3 3 0 3 0 3 0 0 3 0 3 6 3 3 3 0 0 10 39 71 77 81 77 61 61 71
0 0 0 0 0 0 0 0 0 0 0 0 0 0 0 0 0 0 0 3 6 3 6 0 3 0 0 3 3 6 3 3 3 0 6 19 19 52 71 84 81 77 71
0 0 0 0 0 0 0 0 0 0 0 0 0 0 0 0 0 0 0 0 3 3 3 3 3 0 0 0 0 3 3 3 0 0 10 3 3 6 26 74 81 77 74
0 0 0 0 0 0 0 0 0 0 0 0 0 0 0 0 0 0 0 0 3 6 3 3 3 0 0 0 0 3 3 10 6 3 0 0 3 6 6 19 65 71 77
0 0 0 0 0 0 0 0 0 0 0 0 0 0 0 0 0 0 0 0 0 3 3 3 0 0 0 0 0 0 3 6 3 0 0 0 3 3 0 0 6 10 68
0 0 0 0 0 0 0 0 0 0 0 0 0 0 0 0 0 0 0 0 0 0 0 3 0 0 0 0 0 0 3 0 3 0 0 0 0 3 3 3 13 10 10
0 0 0 0 0 0 0 0 0 0 0 0 0 0 0 0 0 0 0 0 0 0 0 3 0 3 0 0 0 0 0 0 0 0 0 0 0 3 0 3 3 10 10
0 0 0 0 0 0 0 0 0 0 0 0 0 0 0 0 0 0 0 0 0 0 0 0 3 0 0 0 0 0 0 0 0 0 0 0 0 0 0 0 3 3 6
0 0 0 0 0 0 0 0 0 0 0 0 0 0 0 0 0 0 0 0 0 0 0 0 0 0 0 0 0 0 0 0 0 0 0 0 0 0 0 0 0 3 3
0 0 0 0 0 0 0 0 0 0 0 0 0 0 0 0 0 0 0 0 0 0 0 0 0 0 0 0 0 0 0 0 0 0 0 0 0 0 0 0 0 0 0
0 0 0 0 0 0 0 0 0 0 0 0 0 0 0 0 0 0 0 0 0 0 0 0 0 0 0 3 0 3 0 0 0 0 0 0 0 0 0 0 0 0 0

GEFSSE_con_cape1000_090.txt.gz
Probability
16 35 94 87 81 77 74 68 71 77 77 74 68 84 81 74 77 77 77 77 77 74 81 77 84 84 87 74 74 81 87 84 84 84 84 87 84 87 90 94 94 97 90
16 45 90 84 68 71 71 65 61 61 65 65 68 71 68 74 74 71 81 84 81 77 87 81 71 74 74 65 65 71 71 81 81 81 90 90 87 84 87 94 97 94 90
26 65 81 74 68 65 55 48 45 48 55 55 61 52 58 65 61 68 74 81 84 87 81 87 77 71 71 65 58 65 71 65 74 87 90 68 84 77 87 87 87 90 87
23 32 35 68 58 58 52 32 32 32 35 39 39 42 48 58 58 65 65 71 74 84 84 81 77 77 71 61 61 61 61 65 74 84 48 68 71 87 81 87 81 90 87
10 26 45 58 52 42 26 19 19 16 19 16 16 26 35 39 48 52 48 58 68 71 74 90 81 81 65 65 58 52 58 65 74 58 23 13 19 81 84 90 87 87 90
10 16 48 52 48 29 23 19 13 10 10 6 10 16 19 23 39 45 48 58 55 58 65 84 87 87 87 61 55 61 58 65 61 16 13 13 23 77 87 87 90 94 94
0 6 29 52 42 32 13 10 10 6 6 6 10 13 16 13 16 26 35 39 45 55 58 55 65 77 77 77 68 68 61 71 58 10 10 10 35 84 87 87 90 87 90
0 0 19 39 32 23 13 13 10 6 3 3 6 6 10 10 13 16 16 32 35 48 48 48 52 68 71 81 84 81 74 77 35 19 13 10 55 81 87 84 90 94 94
0 0 0 13 16 16 16 13 10 3 3 6 6 6 6 13 10 19 16 26 29 35 39 45 52 52 68 74 81 77 71 81 45 13 10 13 65 84 81 81 94 94 90
0 0 0 3 3 10 6 19 10 6 3 6 10 6 13 13 13 16 19 23 23 26 32 39 42 39 52 48 65 61 68 68 32 16 6 13 84 81 81 84 81 87 87
0 0 0 0 0 0 0 3 10 3 6 6 6 6 10 0 0 0 10 26 16 16 16 26 39 35 39 48 48 55 61 35 13 6 3 29 84 84 74 81 81 81 84
0 0 0 0 0 0 0 0 0 0 0 0 0 0 0 0 0 0 0 16 19 16 23 23 29 29 26 3 6 35 23 23 3 3 0 68 81 81 71 77 84 84 84
0 0 0 0 0 0 0 0 0 0 0 0 0 0 0 0 0 0 0 0 3 6 0 3 10 3 0 0 3 6 6 3 3 3 0 81 81 77 77 84 84 87 84
0 0 0 0 0 0 0 0 0 0 0 0 0 0 0 0 0 0 0 0 0 0 0 0 0 0 0 0 0 3 3 0 3 0 0 61 77 77 74 84 87 90 90
0 0 0 0 0 0 0 0 0 0 0 0 0 0 0 0 0 0 0 0 0 0 0 0 0 0 0 0 0 0 3 3 0 0 0 29 74 81 71 77 87 94 90
0 0 0 0 0 0 0 0 0 0 0 0 0 0 0 0 0 0 0 0 0 0 0 0 0 0 0 0 0 0 0 0 0 0 0 10 39 65 74 77 87 87 84
0 0 0 0 0 0 0 0 0 0 0 0 0 0 0 0 0 0 0 0 0 0 0 0 0 0 0 0 0 0 0 0 0 0 0 3 10 29 58 81 94 90 87
0 0 0 0 0 0 0 0 0 0 0 0 0 0 0 0 0 0 0 0 0 0 0 0 0 0 0 0 0 0 0 0 0 0 0 0 3 6 29 68 81 87 87
0 0 0 0 0 0 0 0 0 0 0 0 0 0 0 0 0 0 0 0 0 0 0 0 0 0 0 0 0 0 0 0 0 0 0 0 0 0 3 19 61 77 84
0 0 0 0 0 0 0 0 0 0 0 0 0 0 0 0 0 0 0 0 0 0 0 0 0 0 0 0 0 0 0 0 0 0 0 0 0 0 0 6 10 23 68
0 0 0 0 0 0 0 0 0 0 0 0 0 0 0 0 0 0 0 0 0 0 0 0 0 0 0 0 0 0 0 0 0 0 0 0 0 0 0 0 0 0 10
0 0 0 0 0 0 0 0 0 0 0 0 0 0 0 0 0 0 0 0 0 0 0 0 0 0 0 0 0 0 0 0 0 0 0 0 0 0 0 0 0 0 3
0 0 0 0 0 0 0 0 0 0 0 0 0 0 0 0 0 0 0 0 0 0 0 0 0 0 0 0 0 0 0 0 0 0 0 0 0 0 0 0 0 0 0
0 0 0 0 0 0 0 0 0 0 0 0 0 0 0 0 0 0 0 0 0 0 0 0 0 0 0 0 0 0 0 0 0 0 0 0 0 0 0 0 0 0 0
0 0 0 0 0 0 0 0 0 0 0 0 0 0 0 0 0 0 0 0 0 0 0 0 0 0 0 0 0 0 0 0 0 0 0 0 0 0 0 0 0 0 0
0 0 0 0 0 0 0 0 0 0 0 0 0 0 0 0 0 0 0 0 0 0 0 0 0 0 0 0 0 0 0 0 0 0 0 0 0 0 0 0 0 0 0

GEFSSE_con_cape1000_096.txt.gz
Probability
0 0 77 68 65 71 65 61 65 61 68 74 81 84 81 77 77 81 81 81 87 84 84 87 87 84 84 84 81 77 81 81 84 81 84 81 81 87 84 90 87 90 94
0 23 81 77 65 58 55 61 58 61 65 58 71 61 68 68 71 71 71 74 87 87 90 90 84 87 74 71 74 74 77 81 84 84 90 84 90 84 87 81 84 87 90
13 52 71 71 65 58 48 52 45 48 52 45 52 55 58 71 71 74 84 77 84 90 84 84 87 87 87 77 74 71 74 84 81 87 81 58 65 87 84 84 87 87 90
16 35 39 65 61 45 35 29 29 29 23 23 32 39 45 52 61 68 65 68 74 81 87 90 90 84 87 81 77 65 71 71 87 90 39 39 45 84 84 87 87 81 87
16 26 42 52 48 48 26 23 19 19 23 19 19 23 23 39 45 45 55 65 71 77 81 84 94 87 87 81 77 74 68 68 84 45 10 16 19 81 87 84 84 81 87
13 19 29 42 32 29 23 19 16 16 13 16 16 16 19 19 19 42 52 58 61 65 74 74 84 90 90 87 74 68 68 71 61 13 6 6 13 68 84 87 87 81 90
10 19 26 35 29 23 13 10 10 13 10 6 10 13 16 10 16 23 26 35 39 45 61 68 71 74 84 87 90 81 77 74 39 19 6 6 10 74 84 94 90 84 87
3 10 23 35 29 19 6 6 6 3 0 0 0 6 3 6 13 16 16 26 23 39 39 45 58 65 74 77 87 84 81 74 45 26 10 3 26 87 84 94 90 90 90
3 3 3 6 16 23 16 6 3 0 0 0 0 0 3 0 3 10 13 16 13 16 23 35 45 55 61 68 81 74 77 84 39 13 13 10 35 77 84 94 90 90 87
0 0 0 0 0 0 0 0 0 0 0 0 3 0 0 0 0 0 0 6 6 16 16 19 26 42 52 61 71 68 74 55 32 16 13 10 65 74 77 94 87 87 90
0 0 0 0 0 0 0 0 0 0 0 0 0 0 0 0 0 0 0 13 3 0 3 6 13 19 32 45 52 48 45 32 19 16 3 13 68 77 87 90 90 84 87
0 0 0 0 0 0 0 0 0 0 0 0 0 0 0 0 0 0 0 3 3 6 0 6 13 10 10 10 6 19 6 6 6 3 3 48 74 81 87 84 90 87 84
0 0 0 0 0 0 0 0 0 0 0 0 0 0 0 0 0 0 0 0 0 0 0 0 0 0 3 3 3 3 3 0 0 3 3 26 71 74 77 84 81 87 84
0 0 0 0 0 0 0 0 0 0 0 0 0 0 0 0 0 0 0 0 0 0 0 0 0 0 3 3 0 0 3 3 0 0 0 16 68 71 77 84 87 84 87
0 0 0 0 0 0 0 0 0 0 0 0 0 0 0 0 0 0 0 0 0 0 0 0 0 0 0 0 0 0 0 3 0 0 0 10 39 68 81 77 77 81 77
0 0 0 0 0 0 0 0 0 0 0 0 0 0 0 0 0 0 0 0 0 0 0 0 0 0 0 0 0 0 0 0 0 0 0 0 23 39 71 77 77 81 77
0 0 0 0 0 0 0 0 0 0 0 0 0 0 0 0 0 0 0 0 0 0 0 0 0 0 0 0 0 0 0 0 0 0 0 0 0 13 42 65 84 74 81
0 0 0 0 0 0 0 0 0 0 0 0 0 0 0 0 0 0 0 0 0 0 0 0 0 0 0 0 0 0 0 0 0 0 0 0 0 0 3 35 58 84 81
0 0 0 0 0 0 0 0 0 0 0 0 0 0 0 0 0 0 0 0 0 0 0 0 0 0 0 0 0 0 0 0 0 0 0 0 0 0 0 0 23 35 55
0 0 0 0 0 0 0 0 0 0 0 0 0 0 0 0 0 0 0 0 0 0 0 0 0 0 0 0 0 0 0 0 0 0 0 0 0 0 0 0 6 16 32
0 0 0 0 0 0 0 0 0 0 0 0 0 0 0 0 0 0 0 0 0 0 0 0 0 0 0 0 0 0 0 0 0 0 0 0 0 0 0 0 0 0 3
0 0 0 0 0 0 0 0 0 0 0 0 0 0 0 0 0 0 0 0 0 0 0 0 0 0 0 0 0 0 0 0 0 0 0 0 0 0 0 0 0 0 0
0 0 0 0 0 0 0 0 0 0 0 0 0 0 0 0 0 0 0 0 0 0 0 0 0 0 0 0 0 0 0 0 0 0 0 0 0 0 0 0 0 0 0
0 0 0 0 0 0 0 0 0 0 0 0 0 0 0 0 0 0 0 0 0 0 0 0 0 0 0 0 0 0 0 0 0 0 0 0 0 0 0 0 0 0 0
0 0 0 0 0 0 0 0 0 0 0 0 0 0 0 0 0 0 0 0 0 0 0 0 0 0 0 0 0 0 0 0 0 0 0 0 0 0 0 0 0 0 0
0 0 0 0 0 0 0 0 0 0 0 0 0 0 0 0 0 0 0 0 0 0 0 0 0 0 0 0 0 0 0 0 0 0 0 0 0 0 0 0 0 0 0

GEFSSE_con_cape1000_102.txt.gz
Probability
10 23 65 58 65 58 55 61 61 58 61 61 58 68 65 65 71 74 74 84 84 87 87 87 87 84 90 84 81 77 81 87 90 90 81 90 87 84 77 74 74 74 74
10 16 65 68 58 55 45 52 61 61 55 61 45 48 55 58 48 55 58 68 74 81 87 84 87 87 90 81 77 77 71 74 87 84 87 90 90 90 84 77 81 87 74
6 19 35 55 48 39 42 39 39 39 35 39 39 42 48 45 55 58 58 68 71 77 87 81 87 84 90 87 81 77 71 84 87 87 94 97 84 81 84 87 77 68 77
6 13 13 52 42 35 39 26 26 26 26 23 29 35 39 39 42 48 55 58 61 74 77 81 87 87 94 84 87 74 74 81 87 90 77 81 74 77 81 81 77 68 81
6 6 10 39 32 23 26 19 19 23 23 19 19 19 19 19 19 29 52 55 55 68 77 81 77 84 87 94 90 84 87 77 81 87 74 94 94 87 81 77 77 77 77
6 6 6 26 19 13 13 10 10 10 10 6 6 10 6 10 10 13 13 29 45 45 58 68 71 74 81 90 87 87 81 77 71 74 90 81 90 84 77 77 87 84 81
3 3 3 16 10 6 10 6 10 10 10 3 3 3 3 6 10 10 13 23 23 23 35 42 58 68 68 68 74 77 87 71 52 68 77 77 81 71 77 68 81 77 68
0 0 0 10 6 3 0 0 3 3 0 0 3 6 6 6 6 6 10 10 10 19 19 29 45 48 58 58 65 58 65 77 39 35 55 71 81 74 71 74 81 74 58
0 0 3 3 0 0 3 0 0 0 0 0 0 0 0 3 0 3 3 6 6 6 10 16 26 39 45 48 52 52 58 58 65 52 29 42 65 68 65 71 68 74 65
0 0 0 0 0 0 0 0 0 0 0 0 0 0 0 0 0 0 0 0 0 6 6 3 16 19 32 39 32 52 45 55 48 32 32 39 58 58 65 68 71 71 68
0 0 0 0 0 0 0 0 0 0 0 0 0 0 0 0 0 0 0 0 0 3 3 3 3 6 19 29 39 45 52 35 26 35 42 42 52 58 61 61 58 58 68
0 0 0 0 0 0 0 0 0 0 0 0 0 0 0 0 0 0 0 0 0 3 0 6 3 3 6 13 19 32 42 23 29 32 29 42 45 52 65 68 58 65 68
0 0 0 0 0 0 0 0 0 0 0 0 0 0 0 0 0 0 0 0 0 0 0 3 0 0 0 10 16 13 13 19 23 29 19 45 58 61 65 61 65 71 68
0 0 0 0 0 0 0 0 0 0 0 0 0 0 0 0 0 0 0 0 0 0 0 3 3 3 0 3 10 6 10 19 16 23 42 32 48 55 55 48 58 65 58
0 0 0 0 0 0 0 0 0 0 0 0 0 0 0 0 0 0 0 0 0 0 0 3 3 0 0 0 3 3 6 10 10 13 26 26 35 52 48 45 48 55 65
0 0 0 0 0 0 0 0 0 0 0 0 0 0 0 0 0 0 0 3 0 0 0 3 0 0 0 3 6 6 3 6 10 13 26 29 29 39 52 42 29 45 48
0 0 0 0 0 0 0 0 0 0 0 0 0 0 0 0 0 0 3 3 3 3 3 3 3 0 0 3 3 3 6 10 3 13 26 32 35 23 39 45 39 39 42
0 0 0 0 0 0 0 0 0 0 0 0 0 0 0 0 0 3 3 3 6 6 6 6 10 3 3 10 16 13 10 13 6 10 19 19 32 19 35 35 26 32 39
3 3 0 0 0 0 0 0 0 0 0 0 0 0 0 0 0 3 3 3 3 6 6 0 6 6 16 10 10 13 10 13 16 3 10 10 13 32 29 23 10 13 26
10 10 10 0 0 0 0 0 0 0 0 0 0 0 0 0 0 0 3 3 3 6 3 10 10 13 23 19 0 0 10 13 19 13 10 13 13 10 13 10 29 10 19
10 6 6 0 0 0 0 0 0 0 0 0 0 0 0 0 0 0 0 3 3 6 6 6 10 10 19 13 13 3 10 10 3 19 13 16 6 6 3 6 19 23 26
6 10 10 0 0 0 0 0 0 0 0 0 0 0 0 0 0 0 0 0 3 6 6 6 13 23 16 10 13 13 3 6 10 0 10 10 6 10 6 3 13 13 23
6 6 3 0 0 0 0 0 0 0 0 0 0 0 0 0 0 0 0 0 0 0 6 6 6 13 23 13 10 10 6 0 10 13 6 10 13 19 6 3 0 6 10
10 3 3 0 0 0 0 0 0 0 0 0 0 0 0 0 0 0 0 0 0 0 3 3 3 13 19 23 16 10 3 6 0 6 6 6 6 3 3 0 3 0 3
6 6 0 0 0 0 0 0 0 0 0 0 0 0 0 0 0 0 0 0 0 0 3 3 10 10 16 16 16 10 3 6 3 6 10 3 3 3 6 0 6 3 13
6 3 3 0 0 0 0 0 0 0 0 0 0 0 0 0 0 0 0 0 0 0 0 0 10 10 13 13 16 6 13 6 10 13 0 3 0 0 0 0 6 19 16

GEFSSE_con_cape1000_108.txt.gz
Probability
48 42 77 71 61 61 55 48 58 65 61 58 55 48 48 52 45 58 68 65 68 74 77 77 94 94 90 81 81 77 77 81 84 84 87 87 87 81 77 84 94 87 87
32 32 84 71 58 48 52 48 52 55 55 52 48 48 52 55 52 52 52 58 65 74 77 81 74 77 90 84 81 77 77 81 77 84 90 90 97 90 77 81 94 84 87
26 19 42 55 52 35 39 45 35 42 39 32 39 35 32 29 29 35 39 48 58 61 68 74 74 81 77 81 81 81 81 81 77 90 97 90 94 87 77 84 77 87 90
16 13 10 42 32 29 32 23 23 29 26 26 19 19 19 13 23 23 26 42 48 58 61 68 71 74 81 81 81 81 81 84 87 94 87 84 81 84 77 68 74 77 87
10 6 13 35 26 19 23 19 19 13 13 16 16 16 13 13 13 10 19 26 29 29 39 58 68 65 74 74 81 87 87 84 87 87 77 74 74 84 74 77 74 68 74
10 6 10 39 26 23 10 10 10 6 6 6 6 6 6 6 6 10 10 16 13 19 23 39 42 58 58 58 55 58 74 81 84 61 71 65 84 77 68 74 77 68 74
6 3 6 19 16 6 6 6 6 6 6 6 6 6 6 6 6 6 6 10 10 10 10 26 35 39 39 52 55 55 55 74 61 48 65 74 87 84 68 68 65 65 58
3 3 3 13 6 6 6 3 3 3 3 6 3 3 3 6 6 3 3 3 6 6 10 16 23 26 35 32 45 48 45 61 42 39 52 65 81 77 71 55 68 58 52
0 3 3 3 0 0 0 0 0 0 0 0 0 0 0 0 0 0 3 0 6 3 6 6 10 6 23 39 42 45 52 58 48 32 39 65 87 77 68 55 58 58 52
0 3 3 0 0 0 0 0 0 0 0 0 0 0 0 0 0 3 0 0 0 0 3 0 10 6 16 26 45 32 52 58 19 10 39 61 84 68 58 52 55 58 61
0 0 0 0 0 0 0 0 0 3 3 3 0 3 0 0 0 0 0 0 0 0 0 0 3 10 13 32 55 58 58 23 13 16 35 77 74 61 65 55 61 55 61
0 0 0 0 0 0 0 0 0 0 0 0 0 0 0 0 0 0 0 0 0 0 3 3 3 16 13 6 26 71 23 13 3 10 48 84 81 58 68 68 65 61 65
0 0 0 0 0 0 0 0 0 0 0 0 0 0 0 0 0 0 0 0 0 0 0 0 6 0 0 0 13 10 6 0 6 13 45 84 77 61 61 68 68 71 65
0 0 0 0 0 0 0 0 0 0 0 0 0 0 0 0 0 0 0 0 0 0 0 0 3 0 0 0 0 0 3 6 6 13 29 84 68 74 71 65 65 71 61
0 0 0 0 0 0 0 0 0 0 0 0 0 0 0 0 0 0 0 0 0 0 0 0 0 0 0 0 0 0 3 6 10 6 23 81 68 58 65 58 68 68 71
0 0 0 0 0 0 0 0 0 0 0 0 0 0 0 0 0 0 0 0 0 0 0 0 0 0 0 0 0 0 3 6 3 3 23 35 65 65 71 68 65 68 81
0 0 0 0 0 0 0 0 0 0 0 0 0 0 0 0 0 0 3 3 3 0 0 0 0 0 0 0 0 0 0 3 3 3 6 19 19 42 68 65 61 65 71
0 0 0 0 0 0 0 0 0 0 0 0 0 0 0 0 0 0 0 0 3 3 0 0 0 0 0 0 0 0 3 3 3 6 6 13 13 19 29 52 48 65 68
0 0 0 0 0 0 0 0 0 0 0 0 0 0 0 0 0 0 0 0 3 3 0 0 0 0 0 0 0 3 3 3 3 3 6 6 6 16 16 19 29 32 52
0 0 0 0 0 0 0 0 0 0 0 0 0 0 0 0 0 0 0 0 3 0 0 0 0 0 0 0 0 0 0 3 0 0 0 3 6 10 6 0 3 6 32
3 3 3 0 0 0 0 0 0 0 0 0 0 0 0 0 0 0 0 0 3 0 0 3 0 3 3 3 0 0 0 0 0 0 0 3 3 6 3 3 3 3 3
3 3 3 3 0 0 0 0 0 0 0 0 0 0 0 0 0 0 0 0 0 0 0 3 3 6 3 0 0 0 0 0 0 0 0 3 0 0 0 3 0 3 0
10 3 3 3 3 3 0 0 0 0 0 0 0 0 0 0 0 0 0 0 0 0 0 0 3 3 6 3 0 0 0 0 0 0 0 0 0 0 0 0 0 0 0
13 6 6 6 3 3 0 0 0 0 0 0 0 0 0 0 0 0 0 0 0 0 0 0 0 6 3 3 3 3 0 0 0 0 0 0 0 0 0 0 0 0 0
13 10 6 3 3 3 0 0 0 0 0 0 0 0 0 0 0 0 0 0 0 0 0 0 0 0 6 3 3 0 0 0 0 0 0 0 0 3 0 0 0 0 0
13 13 6 0 0 0 0 0 0 0 0 0 0 0 0 0 0 0 0 0 0 0 0 0 0 0 3 3 3 0 0 0 0 0 0 0 0 0 0 0 0 0 0

GEFSSE_con_cape1000_114.txt.gz
Probability
19 42 81 77 71 74 81 77 77 81 81 77 77 81 84 84 84 81 81 81 84 84 81 81 77 77 68 74 74 87 87 77 84 81 81 87 81 74 77 77 77 81 84
23 61 74 77 68 74 74 74 74 71 71 71 68 58 65 61 58 55 61 61 71 77 74 68 68 65 68 65 65 68 74 77 87 84 84 77 74 71 71 77 77 74 84
23 32 61 58 55 58 58 58 52 48 48 48 45 48 42 32 29 42 48 52 58 61 68 68 68 71 68 68 68 77 77 74 81 90 77 61 65 71 71 74 84 74 68
10 13 29 45 45 39 35 32 35 32 32 35 32 19 19 16 23 29 29 32 32 35 48 58 65 65 65 68 71 74 77 77 77 74 42 61 55 71 68 74 68 68 65
6 10 29 35 32 26 26 29 26 26 23 16 13 13 10 13 13 16 19 16 19 16 26 35 42 42 45 55 68 65 68 68 74 42 32 39 52 71 81 71 65 55 65
6 6 23 32 29 23 19 10 10 10 13 10 10 6 6 10 10 10 10 13 16 19 19 26 39 32 29 29 42 48 55 61 58 26 23 35 52 74 71 77 65 58 61
6 6 10 19 19 10 10 6 6 6 3 3 3 3 3 3 6 6 3 6 10 10 10 16 16 19 23 29 35 39 48 52 29 26 19 35 48 77 74 74 65 65 61
6 3 6 16 13 10 10 6 6 3 3 3 6 6 6 3 3 6 3 0 0 3 6 10 13 16 16 23 26 35 35 55 26 13 19 16 65 81 77 65 65 71 61
3 3 3 3 6 10 6 6 3 0 0 0 0 0 3 3 3 3 3 0 0 3 3 6 3 3 6 16 26 32 42 58 26 6 16 19 65 81 71 71 68 81 68
3 0 0 0 0 0 0 3 3 0 0 0 6 6 3 0 0 0 0 0 0 0 0 0 3 6 3 13 23 39 52 39 3 3 6 29 77 71 68 81 81 81 71
3 0 0 0 0 0 0 0 3 6 3 6 3 3 3 0 0 0 0 3 3 0 0 0 0 6 16 19 32 45 29 3 0 0 10 42 81 68 65 74 77 74 71
0 0 0 0 0 0 0 0 0 0 0 0 0 0 0 0 0 0 0 6 6 3 6 3 3 6 6 0 3 6 0 0 0 0 16 52 77 65 65 65 81 74 71
0 0 0 0 0 0 0 0 0 0 0 0 0 0 0 0 0 0 0 0 0 0 0 0 0 0 0 0 0 0 0 0 0 0 13 84 87 71 55 71 81 81 77
0 0 0 0 0 0 0 0 0 0 0 0 0 0 0 0 0 0 0 0 0 0 0 0 0 0 0 0 0 0 0 0 0 0 6 81 81 81 58 71 77 84 81
0 0 0 0 0 0 0 0 0 0 0 0 0 0 0 0 0 0 0 0 0 0 0 0 0 0 0 0 0 0 0 0 0 0 0 55 77 74 61 68 77 71 84
0 0 0 0 0 0 0 0 0 0 0 0 0 0 0 0 0 0 0 0 0 0 0 0 0 0 0 0 0 0 0 0 0 0 0 16 48 71 68 77 61 81 74
0 0 0 0 0 0 0 0 0 0 0 0 0 0 0 0 0 0 0 0 0 0 0 0 0 0 0 0 0 0 0 0 0 0 0 3 3 32 58 68 61 71 71
0 0 0 0 0 0 0 0 0 0 0 0 0 0 0 0 0 0 0 0 0 0 0 0 0 0 0 0 0 0 0 0 0 0 0 0 3 0 16 52 55 65 71
0 0 0 0 0 0 0 0 0 0 0 0 0 0 0 0 0 0 0 0 0 0 0 0 0 0 0 0 0 0 0 0 0 0 0 0 3 0 0 10 39 52 55
0 0 0 0 0 0 0 0 0 0 0 0 0 0 0 0 0 0 0 0 0 0 0 0 0 0 0 0 0 0 0 0 0 0 0 0 0 0 0 3 10 16 35
0 0 0 0 0 0 0 0 0 0 0 0 0 0 0 0 0 0 0 0 0 0 0 0 0 0 0 0 0 0 0 0 0 0 0 0 0 0 0 0 3 3 6
0 0 0 0 0 0 0 0 0 0 0 0 0 0 0 0 0 0 0 0 0 0 0 0 0 0 0 0 0 0 0 0 0 0 0 0 0 0 0 0 0 0 0
0 0 0 0 0 0 0 0 0 0 0 0 0 0 0 0 0 0 0 0 0 0 0 0 0 0 0 0 0 0 0 0 0 0 0 0 0 0 0 0 0 0 0
0 0 0 0 0 0 0 0 0 0 0 0 0 0 0 0 0 0 0 0 0 0 0 0 0 0 0 0 0 0 0 0 0 0 0 0 0 0 0 0 0 0 0
0 0 0 0 0 0 0 0 0 0 0 0 0 0 0 0 0 0 0 0 0 0 0 0 0 0 0 0 0 0 0 0 0 0 0 0 0 0 0 0 0 0 0
0 0 0 0 0 0 0 0 0 0 0 0 0 0 0 0 0 0 0 0 0 0 0 0 0 0 0 0 0 0 0 0 0 0 0 0 0 0 0 0 0 0 0

GEFSSE_con_cape1000_120.txt.gz
Probability
0 3 52 52 52 58 74 74 74 71 71 74 77 77 77 77 68 74 68 65 68 68 68 68 61 71 77 74 74 77 84 77 77 84 87 77 74 74 71 58 65 68 61
0 23 48 45 45 52 55 68 71 71 61 58 58 58 58 52 52 65 65 55 65 71 71 68 58 71 71 65 65 65 81 81 81 84 81 71 74 74 71 61 68 61 65
6 13 32 35 45 48 48 52 45 48 45 45 42 45 42 42 39 48 45 45 42 45 52 52 58 68 71 68 65 68 68 74 84 81 71 52 55 68 65 65 65 65 74
10 10 19 29 26 32 26 35 39 35 32 35 32 29 29 29 29 26 32 35 35 42 35 39 42 45 55 61 65 71 68 84 81 71 39 45 48 65 65 68 61 55 71
6 6 23 26 19 16 19 26 23 26 23 23 23 23 19 19 13 16 23 26 23 26 29 39 42 39 35 39 48 58 55 68 77 39 26 29 39 68 68 61 65 52 58
6 6 16 13 16 10 6 6 6 6 6 10 10 10 13 13 13 10 6 13 13 19 19 16 26 26 29 32 32 45 45 52 35 16 16 32 32 65 77 74 68 68 58
6 3 6 10 6 3 0 3 3 6 3 3 3 0 6 3 6 6 6 6 10 6 10 13 13 16 19 26 29 39 39 45 26 10 16 19 35 71 65 71 65 65 61
3 3 3 10 10 6 3 10 6 3 3 3 3 6 6 3 3 3 0 3 0 0 6 10 10 10 16 13 23 32 29 35 13 13 16 16 48 68 68 65 61 65 68
3 3 0 0 3 10 10 6 3 0 0 3 3 3 0 3 3 3 0 3 3 6 10 3 3 3 13 16 19 23 26 39 3 3 16 19 48 68 65 68 81 71 68
0 0 0 0 0 0 0 3 3 3 0 3 3 3 3 0 0 0 0 6 6 3 3 3 6 6 13 10 13 19 26 19 3 0 6 16 45 61 55 68 81 77 71
0 0 0 0 0 0 0 0 3 3 0 0 0 0 0 0 0 0 0 3 3 3 3 3 6 6 3 3 13 19 3 0 0 0 10 26 52 61 55 61 81 81 74
0 0 0 0 0 0 0 0 0 0 0 0 0 0 0 0 0 0 0 0 0 0 0 0 0 3 0 0 3 0 0 0 0 0 6 39 42 45 48 61 77 81 74
0 0 0 0 0 0 0 0 0 0 0 0 0 0 0 0 0 0 0 0 0 0 0 0 0 0 0 0 0 0 0 0 0 0 3 39 52 45 48 55 68 81 77
0 0 0 0 0 0 0 0 0 0 0 0 0 0 0 0 0 0 0 0 0 0 0 0 0 0 0 0 0 0 0 0 0 0 0 29 68 52 39 55 65 71 74
0 0 0 0 0 0 0 0 0 0 0 0 0 0 0 0 0 0 0 0 0 0 0 0 0 0 0 0 0 0 0 0 0 0 0 26 55 65 42 45 61 65 81
0 0 0 0 0 0 0 0 0 0 0 0 0 0 0 0 0 0 0 0 0 0 0 0 0 0 0 0 0 0 0 0 0 0 0 6 32 58 68 61 58 65 74
0 0 0 0 0 0 0 0 0 0 0 0 0 0 0 0 0 0 0 0 0 0 0 0 0 0 0 0 0 0 0 0 0 0 0 0 0 10 35 58 61 61 74
0 0 0 0 0 0 0 0 0 0 0 0 0 0 0 0 0 0 0 0 0 0 0 0 0 0 0 0 0 0 0 0 0 0 0 0 0 0 3 26 45 55 71
0 0 0 0 0 0 0 0 0 0 0 0 0 0 0 0 0 0 0 0 0 0 0 0 0 0 0 0 0 0 0 0 0 0 0 0 0 0 0 6 13 29 55
0 0 0 0 0 0 0 0 0 0 0 0 0 0 0 0 0 0 0 0 0 0 0 0 0 0 0 0 0 0 0 0 0 0 0 0 0 0 0 0 3 10 32
0 0 0 0 0 0 0 0 0 0 0 0 0 0 0 0 0 0 0 0 0 0 0 0 0 0 0 0 0 0 0 0 0 0 0 0 0 0 0 0 0 3 6
0 0 0 0 0 0 0 0 0 0 0 0 0 0 0 0 0 0 0 0 0 0 0 0 0 0 0 0 0 0 0 0 0 0 0 0 0 0 0 0 0 0 0
0 0 0 0 0 0 0 0 0 0 0 0 0 0 0 0 0 0 0 0 0 0 0 0 0 0 0 0 0 0 0 0 0 0 0 0 0 0 0 0 0 0 0
0 0 0 0 0 0 0 0 0 0 0 0 0 0 0 0 0 0 0 0 0 0 0 0 0 0 0 0 0 0 0 0 0 0 0 0 0 0 0 0 0 0 0
0 0 0 0 0 0 0 0 0 0 0 0 0 0 0 0 0 0 0 0 0 0 0 0 0 0 0 0 0 0 0 0 0 0 0 0 0 0 0 0 0 0 0
0 0 0 0 0 0 0 0 0 0 0 0 0 0 0 0 0 0 0 0 0 0 0 0 0 0 0 0 0 0 0 0 0 0 0 0 0 0 0 0 0 0 0

GEFSSE_con_cape1000_126.txt.gz
Probability
0 6 29 32 35 48 55 58 58 61 68 68 68 71 74 81 71 71 61 65 65 65 65 65 65 68 68 68 74 74 74 71 77 81 81 71 71 61 52 52 61 65 68
0 3 26 23 26 32 39 45 52 58 68 61 61 52 52 52 48 55 52 48 52 68 68 61 65 61 61 58 61 71 68 74 81 74 74 74 68 61 65 58 65 77 68
3 10 10 23 35 29 35 39 39 35 39 48 39 39 39 42 45 42 39 45 42 42 45 42 45 58 55 58 65 71 65 68 74 71 71 71 68 68 65 65 68 65 77
6 10 6 13 23 19 23 26 19 26 26 29 26 23 26 26 29 26 29 32 29 29 29 35 39 32 42 48 52 65 58 65 71 65 55 61 61 68 65 74 68 65 74
6 6 6 19 10 10 10 6 6 6 13 13 13 16 16 16 19 19 16 16 19 23 19 16 26 29 32 32 32 35 42 52 55 58 65 68 77 71 61 65 65 65 68
0 3 6 13 10 10 10 3 0 0 6 10 10 13 10 10 16 19 16 16 13 13 13 13 10 13 19 26 29 29 29 29 45 55 68 65 74 71 65 65 55 71 65
0 3 3 3 3 3 3 3 3 0 6 6 10 10 6 10 3 10 10 16 16 10 10 13 13 10 16 19 26 29 26 29 35 52 65 61 55 71 58 55 61 58 68
0 0 0 3 3 3 3 0 0 0 3 0 0 0 3 3 6 6 10 10 6 6 3 0 0 13 10 13 19 23 23 32 19 19 48 55 58 65 61 55 61 58 68
0 0 3 3 3 0 0 3 6 3 0 0 0 0 0 0 0 3 3 3 3 3 3 3 3 3 6 10 13 16 19 19 26 16 23 48 45 55 55 52 55 61 68
0 0 0 0 0 0 0 3 0 0 0 3 0 0 0 0 0 0 3 3 3 6 3 3 3 3 3 6 10 10 10 6 6 23 29 45 45 39 39 52 48 61 58
0 0 0 0 0 0 0 0 0 3 3 0 0 0 0 0 0 0 0 3 0 0 3 3 6 6 3 6 6 10 6 6 6 19 39 39 45 45 39 39 58 58 65
0 0 0 0 0 0 0 0 0 0 0 0 0 0 0 0 0 0 0 0 0 0 0 0 0 3 0 0 6 3 6 6 13 19 29 45 42 39 45 48 52 48 68
0 0 0 0 0 0 0 0 0 0 0 0 0 0 0 0 0 0 0 0 0 0 0 0 0 0 3 3 3 3 3 6 10 10 26 35 39 39 35 42 52 61 65
0 0 0 0 0 0 0 0 0 0 0 0 0 0 0 0 0 0 0 0 0 0 0 0 3 0 3 3 0 0 3 3 6 16 35 39 39 39 39 45 52 58 71
0 0 0 0 0 0 0 0 0 0 0 0 0 0 0 0 0 0 0 0 0 0 0 0 0 0 0 0 0 0 3 6 6 10 32 35 45 48 32 39 42 55 65
0 0 0 0 0 0 0 0 0 0 0 0 0 0 0 0 0 0 0 0 0 0 0 0 0 0 0 0 0 3 3 3 6 10 23 23 39 48 45 42 42 45 55
0 0 0 0 0 0 0 0 0 0 0 0 0 0 0 0 0 0 0 0 0 0 0 0 0 0 0 0 0 0 3 6 10 10 16 26 23 29 35 39 48 52 55
0 0 0 0 0 0 0 0 0 0 0 0 0 0 0 0 0 0 0 0 0 0 0 3 6 3 3 3 10 3 3 3 3 0 6 10 26 23 19 26 42 48 48
0 0 0 0 0 0 0 0 0 0 0 0 0 0 0 0 0 0 0 0 0 0 0 0 0 3 3 3 6 10 3 10 10 0 3 6 13 16 26 16 19 35 48
3 0 0 0 0 0 0 0 0 0 0 0 0 0 0 0 0 0 0 0 0 0 3 0 3 3 6 10 0 0 13 10 13 16 6 13 10 13 13 10 23 23 32
0 0 0 0 0 0 0 0 0 0 0 0 0 0 0 0 0 0 0 0 3 0 0 0 3 6 10 6 6 10 10 0 13 19 13 23 19 19 16 10 16 23 32
0 0 0 0 0 0 0 0 0 0 0 0 0 0 0 0 0 0 0 0 3 0 0 0 3 6 3 3 3 10 3 10 10 6 16 13 10 10 16 13 10 10 26
0 0 0 0 0 0 0 0 0 0 0 0 0 0 0 0 0 0 3 3 3 0 3 3 10 6 10 3 3 3 0 0 3 6 3 3 10 16 16 13 13 16 19
0 0 0 0 0 0 0 0 0 0 0 0 0 0 0 0 0 0 3 3 3 3 3 3 6 6 10 10 6 0 3 3 0 0 3 6 6 6 6 6 10 16 19
0 0 0 0 0 0 0 0 0 0 0 0 0 0 0 0 0 0 3 3 3 3 3 6 6 3 6 10 10 6 6 6 0 0 6 6 10 3 6 10 10 13 19
3 3 0 0 0 0 0 0 0 0 0 0 0 0 0 0 0 0 0 3 3 3 3 3 3 3 3 3 3 13 10 3 0 0 10 3 6 6 10 16 13 10 19

GEFSSE_con_cape1000_132.txt.gz
Probability
13 16 48 52 48 52 58 55 58 58 65 68 68 71 71 68 65 65 61 65 68 71 71 71 65 65 61 65 74 71 68 65 65 58 61 65 61 55 65 61 74 71 74
10 13 45 48 39 35 42 42 48 52 55 55 61 55 52 39 45 52 55 55 52 45 55 55 58 58 52 55 68 61 65 61 61 61 68 74 65 61 65 68 71 68 71
6 13 16 32 29 23 29 29 26 32 42 35 35 35 35 39 39 39 35 32 35 39 35 39 39 45 48 45 55 58 58 58 55 68 74 68 77 71 68 65 68 71 74
3 10 10 26 23 26 29 26 23 19 19 23 29 23 23 23 29 29 26 26 23 23 26 29 29 32 35 39 29 32 42 45 61 71 58 61 55 68 68 65 71 65 71
6 6 10 19 19 23 16 10 10 13 16 23 26 16 13 19 23 26 19 16 10 13 19 16 16 19 26 29 29 26 26 35 58 58 58 58 55 74 65 61 65 74 71
6 6 10 13 13 13 13 3 3 6 13 10 19 19 19 16 13 16 23 16 6 6 10 6 10 10 19 16 19 23 23 35 45 39 52 52 55 74 65 68 68 71 65
3 0 0 6 3 0 0 0 3 3 3 3 10 10 13 13 10 6 10 10 6 3 3 6 6 6 10 16 16 19 26 42 29 26 48 48 58 68 61 71 61 68 65
0 0 0 6 6 3 3 3 3 3 3 0 0 0 0 3 6 6 3 3 6 3 3 3 3 6 6 10 13 13 16 35 19 32 39 42 65 68 65 61 55 65 65
0 0 0 0 0 0 0 0 0 0 0 0 0 0 0 3 6 10 3 6 3 3 3 3 6 3 3 6 6 10 19 29 10 29 29 42 65 52 42 48 55 65 65
0 0 0 0 0 0 0 0 0 0 0 0 0 0 0 0 0 0 3 6 3 3 3 3 6 3 3 6 3 3 19 23 6 26 29 42 65 52 45 48 55 61 58
0 0 0 0 0 0 0 0 3 3 3 3 0 3 3 0 0 0 3 0 3 3 3 3 6 6 3 6 16 26 19 3 10 16 26 61 61 52 45 48 48 61 71
0 0 0 0 0 0 0 0 0 0 0 0 0 0 0 0 0 0 0 0 0 0 3 3 6 6 3 0 3 23 3 10 6 16 26 65 52 52 45 48 48 65 77
0 0 0 0 0 0 0 0 0 0 0 0 0 0 0 0 0 0 0 0 0 0 0 0 6 0 0 0 0 0 0 3 6 16 26 61 45 45 48 55 55 65 68
0 0 0 0 0 0 0 0 0 0 0 0 0 3 3 0 0 0 0 0 0 0 0 0 0 0 0 0 0 0 3 3 6 10 23 55 45 42 45 48 48 58 61
0 0 0 0 0 0 0 0 0 0 0 0 3 3 3 3 0 0 0 0 0 0 0 0 0 0 0 0 0 0 3 3 6 6 19 52 52 48 45 42 48 52 61
0 0 0 0 0 0 0 0 0 0 0 0 3 3 0 0 0 0 0 0 0 0 0 0 0 0 0 0 0 3 3 3 3 19 23 32 48 42 52 48 42 42 65
0 0 0 0 0 0 0 0 0 0 0 0 0 0 0 0 0 0 0 0 3 3 0 0 0 0 0 0 0 3 0 3 6 16 23 13 13 29 45 52 52 52 58
0 0 0 0 0 0 0 0 0 0 0 0 0 0 0 0 0 0 0 0 0 0 0 0 0 0 0 0 0 0 3 3 6 16 16 13 10 10 26 48 58 58 68
0 0 0 0 0 0 0 0 0 0 0 0 0 0 0 0 0 0 0 0 0 3 0 0 0 0 0 0 0 0 0 0 0 10 10 13 13 16 10 19 48 45 52
0 0 0 0 0 0 0 0 0 0 0 0 0 0 0 0 0 0 0 0 0 0 0 0 0 0 0 0 0 0 0 3 3 3 6 10 10 13 10 10 19 19 45
0 0 0 0 0 0 0 0 0 0 0 0 0 0 0 0 0 0 0 0 0 0 0 0 0 0 0 0 0 0 0 0 3 3 10 6 10 3 10 10 10 6 16
0 0 0 0 0 0 0 0 0 0 0 0 0 0 0 0 0 0 0 0 0 0 0 0 0 0 0 0 0 0 0 0 0 0 3 6 3 3 3 10 10 10 10
0 0 0 0 0 0 0 0 0 0 0 0 0 0 0 0 0 0 0 0 0 0 0 0 0 0 0 0 0 0 0 0 0 0 0 3 3 0 0 3 10 13 13
0 0 0 0 0 0 0 0 0 0 0 0 0 0 0 3 3 0 0 3 0 3 0 0 3 0 0 0 0 0 0 0 0 0 0 0 3 0 0 0 0 10 6
3 3 3 0 0 0 0 0 0 0 0 0 0 0 3 3 3 0 0 3 6 3 0 3 6 0 0 0 0 0 0 0 0 0 0 0 0 0 0 0 0 6 6
3 3 0 0 0 0 0 0 0 0 0 0 0 0 0 0 0 0 0 0 0 0 0 0 3 0 0 0 0 0 0 0 0 0 0 0 0 0 0 0 0 0 6

GEFSSE_con_cape1000_138.txt.gz
Probability
6 19 65 65 65 68 71 71 74 71 71 77 74 68 61 68 71 74 71 68 65 65 68 68 68 65 61 65 68 68 61 61 61 65 61 65 61 65 65 61 65 58 71
10 35 52 61 58 55 61 68 68 68 68 65 55 55 58 58 58 68 58 61 55 52 58 55 61 58 52 55 58 55 55 55 58 61 68 55 52 55 65 58 48 48 58
13 19 35 42 45 52 52 52 55 58 55 48 48 39 42 42 45 39 39 42 39 42 42 48 48 45 39 39 39 39 42 55 55 52 55 45 52 58 61 52 48 58 58
10 10 23 35 42 42 45 45 42 42 35 35 35 32 29 32 32 32 39 29 26 23 35 35 42 39 32 26 29 35 32 42 42 48 32 45 39 58 65 55 52 58 61
6 13 26 35 42 45 45 35 42 32 26 35 29 26 26 26 26 26 32 26 26 23 16 19 23 23 16 19 23 29 35 39 39 23 19 32 35 58 68 58 61 55 58
6 10 23 32 29 32 26 23 19 16 19 23 23 19 23 26 23 19 13 16 23 19 10 13 19 13 10 13 16 23 32 42 29 10 13 26 39 55 68 58 52 52 52
3 0 10 26 13 16 13 16 13 10 13 13 10 13 10 10 10 6 10 10 3 3 3 6 6 3 10 13 16 23 35 32 13 13 16 26 45 61 48 55 52 45 48
0 0 3 10 13 6 10 13 10 10 10 3 3 6 6 6 6 6 10 10 3 3 3 3 3 3 3 3 16 19 29 29 10 13 23 26 52 52 48 48 52 52 45
0 0 0 0 0 6 10 3 0 0 3 3 3 3 3 3 6 3 3 3 3 3 3 3 3 3 6 10 10 23 29 26 6 16 16 26 58 55 48 35 45 55 45
0 0 0 0 0 0 0 0 0 0 0 0 0 0 3 0 0 0 3 3 3 3 0 0 3 3 6 10 10 19 23 6 0 16 19 35 58 48 45 39 48 48 52
0 0 0 0 0 0 0 0 3 3 3 3 3 3 3 0 0 0 3 3 3 3 3 6 6 10 10 6 6 16 3 0 3 10 19 45 52 45 48 42 48 55 48
0 0 0 0 0 0 0 0 0 0 0 0 0 0 0 0 0 0 0 0 3 3 3 10 10 13 3 0 0 0 0 0 6 10 29 61 58 45 42 45 55 58 52
0 0 0 0 0 0 0 0 0 0 0 0 0 0 0 0 0 0 0 0 0 0 0 0 0 0 0 0 0 0 0 0 3 10 26 61 55 45 45 45 58 58 55
0 0 0 0 0 0 0 0 0 0 0 0 0 0 0 0 0 0 0 0 0 0 0 0 0 0 0 0 0 0 0 3 3 10 13 65 52 45 45 48 52 55 52
0 0 0 0 0 0 0 0 0 0 0 0 0 0 0 0 0 0 0 0 0 0 0 0 0 0 0 0 0 0 0 0 6 10 10 48 58 52 48 52 48 52 52
0 0 0 0 0 0 0 0 0 0 0 0 0 0 0 0 0 0 0 0 0 0 0 0 0 0 0 0 0 0 0 0 0 3 6 29 45 52 61 55 45 48 58
0 0 0 0 0 0 0 0 0 0 0 0 0 0 0 0 0 0 0 0 0 0 0 0 0 0 0 0 0 0 0 0 0 3 3 6 16 35 55 55 55 58 55
0 0 0 0 0 0 0 0 0 0 0 0 0 0 0 0 0 0 0 0 0 0 0 0 0 0 0 0 0 0 0 0 0 3 3 3 3 10 29 42 55 55 58
0 0 0 0 0 0 0 0 0 0 0 0 0 0 0 0 0 0 0 0 0 0 0 0 0 0 0 0 0 0 0 0 0 3 0 0 0 3 6 19 35 42 55
0 0 0 0 0 0 0 0 0 0 0 0 0 0 0 0 0 0 0 0 0 0 0 0 0 0 0 0 0 0 0 0 0 0 0 0 0 0 0 3 13 32 45
0 0 0 0 0 0 0 0 0 0 0 0 0 0 0 0 0 0 0 0 0 0 0 0 0 0 0 0 0 0 0 0 0 0 0 0 3 0 0 0 0 6 13
0 0 0 0 0 0 0 0 0 0 0 0 0 0 0 0 0 0 0 0 0 0 0 0 0 0 0 0 0 0 0 0 0 0 0 0 0 0 0 3 0 0 0
0 0 0 0 0 0 0 0 0 0 0 0 0 0 0 0 0 0 0 0 0 0 0 0 0 0 0 0 0 0 0 0 0 0 0 0 0 0 0 0 3 0 0
0 0 0 0 0 0 0 0 0 0 0 0 0 0 0 0 0 0 0 0 0 0 0 0 0 0 0 0 0 0 0 0 0 0 0 0 0 0 0 0 3 0 0
0 0 0 0 0 0 0 0 0 0 0 0 0 0 0 0 0 0 0 0 0 0 0 0 0 0 0 0 0 0 0 0 0 0 0 0 0 0 0 0 0 0 0
0 0 0 0 0 0 0 0 0 0 0 0 0 0 0 0 0 0 0 0 0 0 0 0 0 0 0 0 0 0 0 0 0 0 0 0 0 0 0 0 0 0 0

GEFSSE_con_cape1000_144.txt.gz
Probability
0 3 39 42 48 55 65 71 71 77 74 71 71 71 77 68 68 65 65 61 65 65 68 65 55 52 52 58 58 61 61 58 55 61 55 55 61 45 48 58 55 52 52
3 10 35 39 48 52 55 61 58 61 65 55 55 58 61 55 58 61 55 55 52 52 55 48 52 48 48 52 48 48 55 61 61 58 55 48 52 45 52 52 55 45 52
3 6 35 39 42 39 45 45 48 45 45 39 39 39 35 39 45 45 39 42 42 45 48 42 48 45 42 39 39 39 39 52 52 52 48 39 39 45 45 58 55 52 61
3 10 16 39 39 32 35 42 42 39 32 26 26 26 23 26 26 29 26 26 32 35 35 35 39 35 35 32 32 32 39 39 42 52 29 39 32 45 48 58 55 52 58
3 6 19 29 26 32 35 35 26 26 26 26 26 29 19 23 23 23 16 13 19 26 32 32 26 19 26 29 35 32 32 39 32 23 16 23 32 45 52 48 52 58 55
3 6 16 32 39 29 26 19 19 19 19 19 19 16 13 13 13 10 13 10 13 19 23 23 19 19 16 23 29 29 29 29 13 10 16 26 39 48 45 42 45 42 45
0 0 10 26 19 13 13 16 19 10 6 6 6 6 3 3 3 10 10 10 13 10 6 10 16 10 10 19 32 35 29 29 3 6 16 23 35 45 48 42 42 39 42
0 0 3 0 3 3 6 6 3 3 3 0 3 6 6 6 6 6 6 3 3 6 6 6 10 6 10 16 26 29 35 16 13 13 13 23 39 48 55 52 48 42 45
0 0 0 0 0 3 3 0 3 0 0 0 0 0 0 6 6 6 3 3 3 3 3 3 10 6 6 16 16 26 29 32 6 10 19 26 42 45 48 45 55 52 45
0 0 0 0 0 0 0 0 0 0 0 0 0 0 3 3 3 3 3 3 3 3 3 3 3 3 6 16 23 26 26 19 6 6 16 32 42 52 48 45 52 55 52
0 0 0 0 0 0 0 0 0 0 0 0 0 0 0 0 0 0 3 6 3 3 6 6 3 6 3 10 6 19 6 0 3 13 16 42 48 45 39 45 45 48 48
0 0 0 0 0 0 0 0 0 0 0 0 0 0 0 0 0 0 0 3 3 0 6 6 6 6 0 0 6 6 0 0 6 10 23 55 52 42 39 45 45 48 52
0 0 0 0 0 0 0 0 0 0 0 0 0 0 0 0 0 0 0 0 0 0 0 0 0 0 0 0 0 0 0 0 3 6 16 58 58 42 42 48 45 48 42
0 0 0 0 0 0 0 0 0 0 0 0 0 0 0 0 0 0 0 0 0 0 0 0 0 0 0 0 0 0 0 0 3 3 13 55 61 48 42 48 48 48 48
0 0 0 0 0 0 0 0 0 0 0 0 0 0 0 0 0 0 0 0 0 0 0 0 0 0 0 0 0 0 0 0 3 3 6 42 55 55 42 39 42 48 48
0 0 0 0 0 0 0 0 0 0 0 0 0 0 0 0 0 0 0 0 0 0 0 0 0 0 0 0 0 0 0 0 0 0 3 16 45 48 58 55 48 48 45
0 0 0 0 0 0 0 0 0 0 0 0 0 0 0 0 0 0 0 0 0 0 0 0 0 0 0 0 0 0 0 0 0 0 0 3 6 35 48 58 61 52 55
0 0 0 0 0 0 0 0 0 0 0 0 0 0 0 0 0 0 0 0 0 0 0 0 0 0 0 0 0 0 0 0 0 0 0 0 0 6 16 39 39 39 48
0 0 0 0 0 0 0 0 0 0 0 0 0 0 0 0 0 0 0 0 0 0 0 0 0 0 0 0 0 0 0 0 0 0 0 0 0 0 6 13 26 35 39
0 0 0 0 0 0 0 0 0 0 0 0 0 0 0 0 0 0 0 0 0 0 0 0 0 0 0 0 0 0 0 0 0 0 0 0 0 0 0 0 0 16 29
0 0 0 0 0 0 0 0 0 0 0 0 0 0 0 0 0 0 0 0 0 0 0 0 0 0 0 0 0 0 0 0 0 0 0 0 0 0 0 0 0 0 13
0 0 0 0 0 0 0 0 0 0 0 0 0 0 0 0 0 0 0 0 0 0 0 0 0 0 0 0 0 0 0 0 0 0 0 0 0 0 0 0 0 0 0
0 0 0 0 0 0 0 0 0 0 0 0 0 0 0 0 0 0 0 0 0 0 0 0 0 0 0 0 0 0 0 0 0 0 0 0 0 0 0 0 0 0 0
0 0 0 0 0 0 0 0 0 0 0 0 0 0 0 0 0 0 0 0 0 0 0 0 0 0 0 0 0 0 0 0 0 0 0 0 0 0 0 0 0 0 0
0 0 0 0 0 0 0 0 0 0 0 0 0 0 0 0 0 0 0 0 0 0 0 0 0 0 0 0 0 0 0 0 0 0 0 0 0 0 0 0 0 0 0
0 0 0 0 0 0 0 0 0 0 0 0 0 0 0 0 0 0 0 0 0 0 0 0 0 0 0 0 0 0 0 0 0 0 0 0 0 0 0 0 0 0 0

GEFSSE_con_cape1000_150.txt.gz
Probability
0 3 29 29 35 48 52 55 65 65 58 61 61 71 61 65 65 58 65 65 65 65 61 55 48 45 48 52 52 52 61 61 61 55 48 48 45 48 48 55 55 52 58
3 6 26 35 35 48 48 45 52 45 45 48 48 48 48 48 48 52 52 52 58 58 52 48 45 52 52 52 52 48 52 58 52 58 48 45 45 42 42 55 61 65 55
3 6 16 32 29 35 35 35 35 32 32 35 42 42 39 42 39 39 48 42 39 39 45 48 39 42 42 42 39 39 45 52 45 42 42 39 42 39 42 48 55 45 42
0 0 10 26 26 32 29 29 29 26 23 23 26 23 29 26 26 26 29 26 32 32 32 39 39 32 39 39 39 39 39 35 39 35 39 35 39 42 35 42 45 42 45
3 3 13 19 23 19 19 16 16 19 23 19 19 19 19 19 16 19 19 23 23 19 19 26 23 23 32 35 29 29 35 32 35 39 42 52 65 48 35 45 42 45 52
0 3 13 19 16 13 13 19 23 26 26 19 23 10 13 10 10 10 10 16 16 19 16 19 19 16 19 32 29 29 26 23 32 32 45 48 52 48 39 48 42 45 52
0 0 0 10 10 10 10 10 6 6 10 10 10 10 10 10 13 13 10 10 10 13 13 10 13 16 23 29 29 29 23 23 32 35 45 52 45 42 42 45 48 42 48
0 0 0 3 6 0 0 0 0 0 0 6 3 3 6 10 10 13 13 6 6 6 10 10 13 13 19 19 26 29 19 26 16 19 35 48 52 52 39 39 45 42 42
0 0 0 0 0 0 0 0 0 0 0 3 3 3 3 6 6 6 10 6 6 6 6 6 10 10 16 19 26 19 19 23 19 16 23 42 42 48 42 48 42 45 45
0 0 0 0 0 0 0 0 0 0 0 0 0 3 3 3 3 3 6 3 3 3 6 6 10 10 16 23 16 23 23 23 13 19 26 32 48 45 52 45 48 45 42
0 0 0 0 0 0 0 0 0 0 0 0 0 0 0 0 0 0 0 6 3 3 6 6 13 10 10 10 16 13 23 16 10 13 39 42 42 42 45 48 45 45 42
0 0 0 0 0 0 0 0 0 0 0 0 0 0 0 0 0 0 0 3 3 3 6 6 6 3 0 3 6 10 10 13 10 16 32 48 45 45 42 45 42 45 42
0 0 0 0 0 0 0 0 0 0 0 0 0 0 0 0 0 0 0 0 0 0 3 3 6 0 0 3 0 3 10 10 10 19 32 52 39 45 42 39 35 48 55
0 0 0 0 0 0 0 0 0 0 0 0 0 0 0 0 0 0 0 0 0 3 10 3 3 3 0 0 0 3 10 6 16 26 52 52 48 39 42 45 45 48 55
0 0 0 0 0 0 0 0 0 0 0 0 0 0 0 0 0 0 0 0 0 3 3 3 0 3 3 3 3 10 10 6 19 23 35 42 48 45 39 42 52 52 48
0 0 0 0 0 0 0 0 0 0 0 0 0 0 0 0 0 0 0 3 3 3 3 0 0 3 10 3 3 10 10 10 16 16 26 32 39 52 48 42 42 48 55
0 0 0 0 0 0 0 0 0 0 0 0 0 0 0 0 0 0 0 3 3 3 3 0 0 10 6 3 10 10 16 16 13 16 19 23 29 35 39 42 39 39 45
0 0 0 0 0 0 0 0 0 0 0 0 0 0 0 0 0 0 0 0 3 3 3 3 0 6 13 10 10 16 16 23 13 19 19 23 23 19 16 26 32 35 39
0 0 0 0 0 0 0 0 0 0 0 0 0 0 0 0 0 0 0 0 0 0 0 0 0 6 6 19 16 16 16 23 23 19 23 19 19 26 23 16 19 19 32
0 0 0 0 0 0 0 0 0 0 0 0 0 0 0 0 0 0 0 0 0 3 3 0 6 6 13 10 3 6 16 19 19 26 16 23 16 16 19 19 23 16 19
0 0 0 0 0 0 0 0 0 0 0 0 0 0 0 0 0 0 0 3 0 0 0 0 3 3 3 10 6 10 19 13 19 23 19 19 13 16 23 13 23 29 26
0 0 0 0 0 0 0 0 0 0 0 0 0 0 0 0 0 0 0 3 3 3 3 3 3 6 0 0 3 0 3 13 13 3 26 23 10 10 10 10 10 13 16
0 0 0 0 0 0 0 0 0 0 0 0 0 0 0 0 0 0 0 0 0 0 3 3 3 3 6 0 0 0 0 3 3 3 6 10 10 13 16 16 10 6 10
0 0 0 0 0 0 0 0 0 0 0 0 0 0 0 0 0 0 0 0 0 3 3 3 0 3 3 0 0 0 0 3 10 6 6 6 10 13 16 16 10 10 16
0 0 0 0 0 0 0 0 0 0 0 0 0 0 0 0 0 0 0 0 0 3 3 0 0 0 0 3 6 3 3 10 0 3 3 0 10 6 16 16 19 13 16
0 0 0 0 0 0 0 0 0 0 0 0 0 0 0 0 0 0 0 0 0 0 3 0 0 0 0 0 3 6 6 3 10 6 3 3 3 6 10 16 13 19 19